Stanley, ND

9:55 PM CST on December 04, 2016 (GMT -0600)
Stanley

Weather History for K08D - October, 2013

Change the Weather History Date:

Thursday, October 17, 2013

  Actual Average (KMOT) Record (KMOT)
Temperature  
Mean Temperature 38 °F 44 °F  
Max Temperature 44 °F 55 °F 87 °F (1914)
Min Temperature 32 °F 34 °F 5 °F (1919)
Degree Days  
Heating Degree Days 27 21  
Month to date heating degree days 296  
Since 1 July heating degree days 616  
Cooling Degree Days 0 0  
Month to date cooling degree days 0  
Year to date cooling degree days 444  
Moisture  
Dew Point 29 °F    
Average Humidity 76    
Maximum Humidity 100    
Minimum Humidity 37    
Precipitation  
Precipitation 0.00 in 0.03 in 0.49 in (1980)
Month to date precipitation 0.72  
Year to date precipitation 15.62  
Sea Level Pressure  
Sea Level Pressure 30.02 in    
Wind  
Wind Speed 11 mph (NW)    
Max Wind Speed 16 mph    
Max Gust Speed 23 mph    
Visibility 10 miles    
Events      
T = Trace of Precipitation, MM = Missing Value Source: NWS Daily Summary

Daily Weather History Graph

Daily Weather History Graph

Search for Another Location

Airport or City:

Trip Planner

Search our weather history database for the weather conditions in past years. The results will help you decide how hot, cold, wet, or windy it might be!

Date:

Astronomy

Oct. 17, 2013 Rise Set
Actual Time 8:12 AM CDT 6:56 PM CDT
Civil Twilight 7:41 AM CDT 7:27 PM CDT
Nautical Twilight 7:04 AM CDT 8:03 PM CDT
Astronomical Twilight 6:28 AM CDT 8:40 PM CDT
Moon 6:14 PM CDT (10/17) 6:42 AM CDT (10/17)
Length of Visible Light 11h 46m
Length of Day
10h 43m
Waxing Gibbous, 98% of the Moon is Illuminated
Oct 17
Waxing Gibbous
Oct 18
Full
Oct 26
Last Quarter
Nov 3
New
Nov 9
First Quarter

Hourly Weather History & Observations

Time (CDT) Temp. Windchill Dew Point Humidity Pressure Visibility Wind Dir Wind Speed Gust Speed Precip Events Conditions
12:15 AM 37.4 °F 28.9 °F 37.4 °F 100% 29.98 in 10.0 mi NNW 13.8 mph 19.6 mph N/A   Mostly Cloudy
12:35 AM 37.4 °F 28.2 °F 37.4 °F 100% 29.98 in 10.0 mi NNW 16.1 mph 23.0 mph N/A   Mostly Cloudy
12:55 AM 37.4 °F 28.2 °F 35.6 °F 93% 29.98 in 10.0 mi North 16.1 mph 23.0 mph N/A   Overcast
1:15 AM 35.6 °F 26.2 °F 35.6 °F 100% 29.99 in 10.0 mi North 15.0 mph 20.7 mph N/A   Overcast
1:35 AM 35.6 °F 27.5 °F 33.8 °F 93% 29.99 in 10.0 mi North 11.5 mph - N/A   Overcast
1:55 AM 35.6 °F 27.5 °F 32.0 °F 87% 30.00 in 10.0 mi NNW 11.5 mph 17.3 mph N/A   Overcast
2:15 AM 35.6 °F 27.5 °F 32.0 °F 87% 30.00 in 10.0 mi NNW 11.5 mph - N/A   Overcast
2:35 AM 33.8 °F 25.3 °F 32.0 °F 93% 30.00 in 10.0 mi NNW 11.5 mph - N/A   Overcast
2:55 AM 33.8 °F 26.4 °F 32.0 °F 93% 30.00 in 10.0 mi NNW 9.2 mph - N/A   Mostly Cloudy
3:15 AM 32.0 °F 24.8 °F 32.0 °F 100% 30.01 in 10.0 mi NW 8.1 mph - N/A   Partly Cloudy
3:35 AM 32.0 °F 25.6 °F 32.0 °F 100% 30.02 in 10.0 mi NW 6.9 mph - N/A   Mostly Cloudy
3:55 AM 33.8 °F 27.0 °F 32.0 °F 93% 30.02 in 10.0 mi NW 8.1 mph - N/A   Overcast
4:15 AM 33.8 °F 27.0 °F 32.0 °F 93% 30.02 in 10.0 mi NNW 8.1 mph - N/A   Overcast
4:35 AM 35.6 °F 29.2 °F 32.0 °F 87% 30.02 in 10.0 mi NW 8.1 mph - N/A   Overcast
4:55 AM 35.6 °F 29.2 °F 32.0 °F 87% 30.02 in 10.0 mi NW 8.1 mph 17.3 mph N/A   Overcast
5:15 AM 33.8 °F 25.8 °F 32.0 °F 93% 30.02 in 10.0 mi NW 10.4 mph - N/A   Overcast
5:35 AM 33.8 °F 25.8 °F 32.0 °F 93% 30.03 in 10.0 mi NW 10.4 mph - N/A   Overcast
5:55 AM 33.8 °F 26.4 °F 32.0 °F 93% 30.03 in 10.0 mi NW 9.2 mph - N/A   Overcast
6:15 AM 32.0 °F 25.6 °F 32.0 °F 100% 30.04 in 10.0 mi NW 6.9 mph - N/A   Overcast
6:35 AM 33.8 °F 27.7 °F 32.0 °F 93% 30.04 in 10.0 mi NW 6.9 mph - N/A   Overcast
6:55 AM 33.8 °F 26.4 °F 32.0 °F 93% 30.05 in 10.0 mi NW 9.2 mph - N/A   Overcast
7:15 AM 32.0 °F 24.8 °F 32.0 °F 100% 30.05 in 10.0 mi NW 8.1 mph - N/A   Overcast
7:35 AM 32.0 °F 24.2 °F 32.0 °F 100% 30.05 in 10.0 mi NW 9.2 mph - N/A   Overcast
7:55 AM 32.0 °F 23.6 °F 32.0 °F 100% 30.05 in 10.0 mi NW 10.4 mph - N/A   Overcast
8:15 AM 32.0 °F 23.6 °F 32.0 °F 100% 30.06 in 10.0 mi NW 10.4 mph 18.4 mph N/A   Overcast
8:55 AM 32.0 °F 24.8 °F 32.0 °F 100% 30.06 in 10.0 mi NW 8.1 mph - N/A   Clear
9:15 AM 32.0 °F 24.8 °F 32.0 °F 100% 30.07 in 10.0 mi WNW 8.1 mph - N/A   Clear
9:35 AM 32.0 °F 23.6 °F 32.0 °F 100% 30.07 in 10.0 mi WNW 10.4 mph - N/A   Clear
9:55 AM 33.8 °F 26.4 °F 32.0 °F 93% 30.08 in 10.0 mi NW 9.2 mph - N/A   Clear
10:15 AM 35.6 °F 28.6 °F 32.0 °F 87% 30.08 in 10.0 mi NW 9.2 mph - N/A   Clear
10:35 AM 37.4 °F 30.3 °F 32.0 °F 81% 30.07 in 10.0 mi NW 10.4 mph - N/A   Clear
10:55 AM 37.4 °F 30.3 °F 32.0 °F 81% 30.07 in 10.0 mi NW 10.4 mph 17.3 mph N/A   Clear
11:15 AM 39.2 °F 33.6 °F 32.0 °F 75% 30.07 in 10.0 mi NW 8.1 mph 17.3 mph N/A   Clear
11:35 AM 39.2 °F 32.0 °F 32.0 °F 75% 30.07 in 10.0 mi NNW 11.5 mph - N/A   Clear
11:55 AM 41.0 °F 34.3 °F 32.0 °F 70% 30.07 in 10.0 mi NW 11.5 mph 16.1 mph N/A   Clear
12:15 PM 41.0 °F 33.9 °F 30.2 °F 65% 30.06 in 10.0 mi NW 12.7 mph 18.4 mph N/A   Clear
12:35 PM 41.0 °F 33.1 °F 28.4 °F 61% 30.06 in 10.0 mi NW 15.0 mph - N/A   Partly Cloudy
12:55 PM 41.0 °F 34.3 °F 28.4 °F 61% 30.05 in 10.0 mi WNW 11.5 mph 18.4 mph N/A   Scattered Clouds
1:15 PM 44.6 °F 38.1 °F 28.4 °F 53% 30.05 in 10.0 mi WNW 13.8 mph 21.9 mph N/A   Mostly Cloudy
1:35 PM 44.6 °F 37.8 °F 26.6 °F 49% 30.04 in 10.0 mi NW 15.0 mph 19.6 mph N/A   Scattered Clouds
1:55 PM 42.8 °F 36.6 °F 26.6 °F 53% 30.04 in 10.0 mi NNW 11.5 mph 17.3 mph N/A   Partly Cloudy
2:15 PM 44.6 °F 38.4 °F 24.8 °F 46% 30.03 in 10.0 mi NW 12.7 mph 18.4 mph N/A   Partly Cloudy
2:35 PM 44.6 °F 39.2 °F 24.8 °F 46% 30.02 in 10.0 mi NW 10.4 mph - N/A   Scattered Clouds
2:55 PM 44.6 °F 39.2 °F 24.8 °F 46% 30.02 in 10.0 mi NW 10.4 mph 18.4 mph N/A   Mostly Cloudy
3:15 PM 44.6 °F 38.1 °F 23.0 °F 43% 30.01 in 10.0 mi WNW 13.8 mph 17.3 mph N/A   Scattered Clouds
3:35 PM 44.6 °F 38.4 °F 23.0 °F 43% 30.01 in 10.0 mi WNW 12.7 mph 18.4 mph N/A   Partly Cloudy
3:55 PM 44.6 °F 39.2 °F 23.0 °F 43% 30.01 in 10.0 mi NNW 10.4 mph 16.1 mph N/A   Mostly Cloudy
4:15 PM 44.6 °F 38.8 °F 23.0 °F 43% 30.01 in 10.0 mi NW 11.5 mph 19.6 mph N/A   Mostly Cloudy
4:35 PM 44.6 °F 38.4 °F 19.4 °F 37% 30.00 in 10.0 mi NNW 12.7 mph 17.3 mph N/A   Mostly Cloudy
4:55 PM 44.6 °F 38.4 °F 19.4 °F 37% 30.00 in 10.0 mi NW 12.7 mph 17.3 mph N/A   Overcast
5:15 PM 44.6 °F 38.4 °F 21.2 °F 39% 30.00 in 10.0 mi NNW 12.7 mph - N/A   Mostly Cloudy
5:35 PM 42.8 °F 38.6 °F 23.0 °F 46% 30.00 in 10.0 mi WNW 6.9 mph 20.7 mph N/A   Mostly Cloudy
5:55 PM 42.8 °F 38.0 °F 23.0 °F 46% 29.99 in 10.0 mi NW 8.1 mph - N/A   Overcast
6:15 PM 41.0 °F 36.4 °F 23.0 °F 49% 29.99 in 10.0 mi WNW 6.9 mph - N/A   Mostly Cloudy
6:35 PM 41.0 °F 37.1 °F 24.8 °F 53% 29.99 in 10.0 mi WNW 5.8 mph - N/A   Mostly Cloudy
6:55 PM 39.2 °F 35.0 °F 24.8 °F 56% 29.99 in 10.0 mi WNW 5.8 mph - N/A   Mostly Cloudy
7:15 PM 35.6 °F 30.7 °F 24.8 °F 65% 29.99 in 10.0 mi WNW 5.8 mph - N/A   Mostly Cloudy
7:35 PM 32.0 °F 26.4 °F 26.6 °F 80% 30.00 in 10.0 mi West 5.8 mph - N/A   Overcast
7:55 PM 33.8 °F 29.6 °F 26.6 °F 75% 29.99 in 10.0 mi WNW 4.6 mph - N/A   Overcast
8:15 PM 33.8 °F 28.6 °F 28.4 °F 81% 29.99 in 10.0 mi WNW 5.8 mph - N/A   Overcast
8:35 PM 33.8 °F 29.6 °F 28.4 °F 81% 29.99 in 10.0 mi West 4.6 mph - N/A   Overcast
8:55 PM 33.8 °F 29.6 °F 28.4 °F 81% 29.99 in 10.0 mi West 4.6 mph - N/A   Overcast
9:15 PM 35.6 °F 30.7 °F 28.4 °F 75% 29.98 in 10.0 mi West 5.8 mph - N/A   Overcast
9:35 PM 37.4 °F 32.8 °F 26.6 °F 65% 29.99 in 10.0 mi West 5.8 mph - N/A   Overcast
9:55 PM 37.4 °F 32.8 °F 28.4 °F 70% 29.99 in 10.0 mi WNW 5.8 mph - N/A   Overcast
10:15 PM 33.8 °F 28.6 °F 28.4 °F 81% 29.99 in 10.0 mi WNW 5.8 mph - N/A   Overcast
10:35 PM 35.6 °F 29.2 °F 30.2 °F 81% 29.99 in 10.0 mi WNW 8.1 mph - N/A   Overcast
10:55 PM 35.6 °F 29.2 °F 30.2 °F 81% 29.99 in 10.0 mi WNW 8.1 mph - N/A   Overcast
11:15 PM 37.4 °F 31.4 °F 32.0 °F 81% 29.99 in 10.0 mi NNW 8.1 mph - N/A   Overcast
11:35 PM 37.4 °F 30.8 °F 32.0 °F 81% 29.98 in 10.0 mi NNW 9.2 mph - N/A   Overcast
11:55 PM 37.4 °F 32.8 °F 32.0 °F 81% 29.98 in 10.0 mi NNW 5.8 mph - N/A   Overcast